TimeCST,TemperatureF,Dew PointF,Humidity,Sea Level PressureIn,VisibilityMPH,Wind Direction,Wind SpeedMPH,Gust SpeedMPH,PrecipitationIn,Events,Conditions,WindDirDegrees,DateUTC
12:12 AM,22.5,18.5,85,29.81,10.0,NW,5.8,-,N/A,,Overcast,310,2012-12-17 06:12:00
12:32 AM,22.5,18.5,85,29.80,10.0,NW,5.8,-,N/A,,Overcast,310,2012-12-17 06:32:00
12:52 AM,22.1,18.5,86,29.80,10.0,WNW,4.6,-,N/A,,Overcast,300,2012-12-17 06:52:00
1:12 AM,22.1,18.5,86,29.79,10.0,North,4.6,-,N/A,,Overcast,360,2012-12-17 07:12:00
1:32 AM,22.1,18.5,86,29.80,10.0,NNW,4.6,-,N/A,,Overcast,340,2012-12-17 07:32:00
1:52 AM,22.1,18.9,87,29.80,10.0,Calm,Calm,-,N/A,,Overcast,0,2012-12-17 07:52:00
2:12 AM,22.1,18.7,87,29.80,10.0,WNW,4.6,-,N/A,,Overcast,290,2012-12-17 08:12:00
2:32 AM,22.1,18.9,87,29.78,10.0,NNW,3.5,-,N/A,,Overcast,330,2012-12-17 08:32:00
2:52 AM,22.1,19.0,88,29.78,10.0,WNW,3.5,-,N/A,,Overcast,300,2012-12-17 08:52:00
3:12 AM,22.1,19.2,89,29.78,10.0,NW,5.8,-,N/A,,Overcast,310,2012-12-17 09:12:00
3:32 AM,22.1,19.0,88,29.78,10.0,North,4.6,-,N/A,,Overcast,360,2012-12-17 09:32:00
3:52 AM,22.1,19.2,89,29.78,10.0,NNW,4.6,-,N/A,,Overcast,330,2012-12-17 09:52:00
4:12 AM,22.5,19.4,88,29.78,10.0,Calm,Calm,-,N/A,,Overcast,0,2012-12-17 10:12:00
4:32 AM,22.6,19.4,87,29.78,10.0,NW,4.6,-,N/A,,Overcast,310,2012-12-17 10:32:00
4:52 AM,22.5,19.4,88,29.77,10.0,NNW,3.5,-,N/A,,Overcast,340,2012-12-17 10:52:00
5:12 AM,22.5,19.8,89,29.77,10.0,NNW,4.6,-,N/A,,Overcast,340,2012-12-17 11:12:00
5:32 AM,22.6,19.9,89,29.77,10.0,North,3.5,-,N/A,,Overcast,350,2012-12-17 11:32:00
6:12 AM,22.1,19.9,91,29.77,10.0,NNE,3.5,-,N/A,,Overcast,30,2012-12-17 12:12:00
6:32 AM,22.1,20.1,92,29.77,10.0,North,3.5,-,N/A,,Overcast,10,2012-12-17 12:32:00
6:52 AM,22.1,20.1,92,29.77,10.0,North,4.6,-,N/A,,Overcast,10,2012-12-17 12:52:00
7:12 AM,22.1,19.9,91,29.77,7.0,Calm,Calm,-,N/A,,Overcast,0,2012-12-17 13:12:00
7:32 AM,22.1,20.1,92,29.78,7.0,Calm,Calm,-,N/A,,Overcast,0,2012-12-17 13:32:00
7:52 AM,22.1,19.9,91,29.78,10.0,Calm,Calm,-,N/A,,Overcast,0,2012-12-17 13:52:00
8:12 AM,22.5,19.9,90,29.78,10.0,Calm,Calm,-,N/A,,Overcast,0,2012-12-17 14:12:00
8:32 AM,22.3,19.9,91,29.78,10.0,Calm,Calm,-,N/A,,Overcast,0,2012-12-17 14:32:00
8:52 AM,22.5,19.9,90,29.77,10.0,Calm,Calm,-,N/A,,Overcast,0,2012-12-17 14:52:00
9:12 AM,22.5,19.9,90,29.78,10.0,Calm,Calm,-,N/A,,Overcast,0,2012-12-17 15:12:00
9:32 AM,22.5,19.9,90,29.78,10.0,Calm,Calm,-,N/A,,Overcast,0,2012-12-17 15:32:00
9:52 AM,22.5,19.9,90,29.78,10.0,Calm,Calm,-,N/A,,Overcast,0,2012-12-17 15:52:00
10:12 AM,22.8,19.9,89,29.78,10.0,Calm,Calm,-,N/A,,Overcast,0,2012-12-17 16:12:00
10:32 AM,23.0,20.1,89,29.77,10.0,Calm,Calm,-,N/A,,Overcast,0,2012-12-17 16:32:00
10:52 AM,23.0,20.1,89,29.77,10.0,Calm,Calm,-,N/A,,Overcast,0,2012-12-17 16:52:00
11:12 AM,23.4,20.3,88,29.76,10.0,Calm,Calm,-,N/A,,Overcast,0,2012-12-17 17:12:00
11:32 AM,23.7,20.3,87,29.75,10.0,Calm,Calm,-,N/A,,Overcast,0,2012-12-17 17:32:00
11:52 AM,23.7,20.1,86,29.74,7.0,Calm,Calm,-,N/A,,Overcast,0,2012-12-17 17:52:00
12:12 PM,23.9,20.3,86,29.73,10.0,Calm,Calm,-,N/A,,Overcast,0,2012-12-17 18:12:00
12:32 PM,24.3,20.3,85,29.73,7.0,Calm,Calm,-,N/A,,Overcast,0,2012-12-17 18:32:00
12:52 PM,24.6,20.5,84,29.73,7.0,Calm,Calm,-,N/A,,Overcast,0,2012-12-17 18:52:00
1:12 PM,24.4,20.3,84,29.72,7.0,Calm,Calm,-,N/A,,Overcast,0,2012-12-17 19:12:00
1:32 PM,24.6,20.3,84,29.72,7.0,Calm,Calm,-,N/A,,Overcast,0,2012-12-17 19:32:00
1:52 PM,24.6,20.3,84,29.70,10.0,Calm,Calm,-,N/A,,Overcast,0,2012-12-17 19:52:00
2:12 PM,25.3,20.7,82,29.70,7.0,Calm,Calm,-,N/A,,Overcast,0,2012-12-17 20:12:00
2:32 PM,25.5,21.0,83,29.70,7.0,Calm,Calm,-,N/A,,Overcast,0,2012-12-17 20:32:00
2:52 PM,25.5,21.0,83,29.71,7.0,Calm,Calm,-,N/A,,Overcast,0,2012-12-17 20:52:00
3:12 PM,25.5,21.0,83,29.70,7.0,Calm,Calm,-,N/A,,Overcast,0,2012-12-17 21:12:00
3:32 PM,25.7,21.0,82,29.70,10.0,Calm,Calm,-,N/A,,Overcast,0,2012-12-17 21:32:00
3:52 PM,25.2,20.3,82,29.70,10.0,East,3.5,-,N/A,,Overcast,80,2012-12-17 21:52:00
6:32 PM,24.6,20.8,86,29.72,10.0,Calm,Calm,-,N/A,,Overcast,0,2012-12-18 00:32:00
6:52 PM,24.6,20.7,85,29.72,10.0,Calm,Calm,-,N/A,,Overcast,0,2012-12-18 00:52:00
7:12 PM,24.6,20.8,86,29.72,10.0,Calm,Calm,-,N/A,,Overcast,0,2012-12-18 01:12:00
7:32 PM,24.6,21.2,87,29.72,10.0,Calm,Calm,-,N/A,,Overcast,0,2012-12-18 01:32:00
7:52 PM,24.6,21.2,87,29.72,10.0,Calm,Calm,-,N/A,,Overcast,0,2012-12-18 01:52:00
8:12 PM,24.6,21.2,87,29.72,10.0,Calm,Calm,-,N/A,,Overcast,0,2012-12-18 02:12:00
8:32 PM,24.6,21.2,87,29.72,10.0,Calm,Calm,-,N/A,,Overcast,0,2012-12-18 02:32:00
8:52 PM,24.6,21.2,87,29.72,10.0,Calm,Calm,-,N/A,,Overcast,0,2012-12-18 02:52:00
9:12 PM,24.6,21.2,87,29.71,7.0,Calm,Calm,-,N/A,,Overcast,0,2012-12-18 03:12:00
9:32 PM,24.6,21.6,88,29.71,10.0,Calm,Calm,-,N/A,,Overcast,0,2012-12-18 03:32:00
9:52 PM,24.6,21.6,88,29.72,10.0,SSE,3.5,-,N/A,,Overcast,150,2012-12-18 03:52:00
10:12 PM,24.6,21.6,88,29.71,10.0,SE,3.5,-,N/A,,Overcast,140,2012-12-18 04:12:00
10:32 PM,24.6,21.7,89,29.71,7.0,SE,3.5,-,N/A,,Overcast,130,2012-12-18 04:32:00
10:52 PM,24.6,21.7,89,29.71,7.0,Calm,Calm,-,N/A,,Overcast,0,2012-12-18 04:52:00
11:12 PM,24.6,21.7,89,29.71,7.0,Calm,Calm,-,N/A,,Overcast,0,2012-12-18 05:12:00
11:32 PM,24.6,21.7,89,29.71,7.0,Calm,Calm,-,N/A,,Overcast,0,2012-12-18 05:32:00
11:52 PM,24.6,21.7,89,29.70,7.0,SSE,3.5,-,N/A,,Overcast,150,2012-12-18 05:52:00